STARLINK-32781, 62848

Orbit data source: Space-Track

STARLINK-32781, 62848 is a payload satellite owned by SpaceX/Seattle (US) in LEO that was launched on Mon, 27 Jan 2025 UTC via an FALCON 9 launch vehicle from the Air Force Eastern Test Range (AFETR). Payload-class satellites include a variety of spacecraft equipped with specific instruments for various scientific and technological missions. These include communications satellites like Starlink; space stations such as the ISS; scientific satellites like the Hubble; Earth observation satellites from companies like Planet Labs, Umbra, and HawkEye 360; GPS; miniature CubeSats for education and research; and military/defense satellites.

Loading next visibility...
Identifier
62848, 2025-019V
Orbit
LEO
Last TLE update
6 hours ago
Origin
Manufacturer
SpaceX/Seattle
Mission
Operational Commercial Communications
Bus & Motor
STARLINK V2M, Unknown motor
Mass
730 kg wet, ~700 kg dry
Launch date (UTC)
2025-01-27 (5 months ago)
Launch vehicle
FALCON 9
Launch site
Air Force Eastern Test Range (AFETR)
Object type
Payload
Rocket body
Debris
Shape & HBR
Box + 2 Pan, 29 m
Radar Cross Section
33.884 m², Large (>1 m²)

Expand to show TLE details & history

TLE from 6 hours ago
0 STARLINK-32781
1 62848U 25019V   25187.59422917  .00020539  00000-0  75355-3 0  9994
2 62848  43.0075  38.8174 0003472 285.6588  74.3880 15.27588161 24615
Epoch: 2025-07-06T14:15Z
TLE epoch observation values (Epoch: 2025-07-06T14:15:41.4Z)
Latitude
-0.00005°
Longitude
-99.92083°
Altitude
482.161 km
Speed
7.627 km/s
True Right ascension
02h 35m 16s
True Declination
0° 00' 00"
Sunlit
Object was in daylight at epoch
Visualization orbit readout
Latitude
30.707°
Longitude
-62.15981°
Altitude
484.904 km
Speed
7.627 km/s
Apparent Right ascension
01h 36m 28s
Apparent Declination
-6° 37' 40"
Sunlit
Object is in daylight
Visualization observer readout
Local Sidereal Time
08:44:45
Azimuth
275.93° WNW
Elevation
-17.323°
Doppler factor
1
Orbital elements
Apogee altitude
487.351 km
Perigee altitude
482.586 km
Semi-major axis
6,863.106 km
Eccentricity
0.00035
Inclination
43.0075°
RAAN
38.8174°
Arg. of periapsis
285.6588°
True anomaly
Unknown
Mean anomaly
74.388°
Eccentric anomaly
Unknown
Mean motion
3.81735 °/min
Orbital period
94.31 mins
BSTAR
0.00075355
Loading maneuver chart data...
Loading SW <> Apogee altitude chart data...
Loading historical data...
Loading historical data...
Loading historical data...
Loading historical data...
Loading historical data...
Loading historical data...
Loading historical data...

STARLINK-32781 Visibility forecast

Observer location: undefined°, undefined°

Span
Click to sort rows by Start time (UTC) header in descending order
Start Az.
Max El. time (UTC)
Max El. Az.
Max El.
End time (UTC)
End Az.
7 mins2025-07-06 20:53:54.629Z287.858° WNW2025-07-06 20:56:54.629Z342.051° N37.911°2025-07-06 21:00:54.629Z83.467° E
6 mins2025-07-06 22:33:54.629Z282.579° WNW2025-07-06 22:35:54.629Z247.041° WSW41.606°2025-07-06 22:39:54.629Z119.328° SE
4 mins2025-07-07 17:09:54.629Z197.121° SSW2025-07-07 17:11:54.629Z131.846° SE29.544°2025-07-07 17:13:54.629Z90.296° ESE
6 mins2025-07-07 18:47:54.629Z266.727° W2025-07-07 18:49:54.629Z307.528° NW41.696°2025-07-07 18:53:54.629Z70.674° E
6 mins2025-07-07 20:26:54.629Z291.82° WNW2025-07-07 20:29:54.629Z33.301° NE37.25°2025-07-07 20:32:54.629Z82.23° E
|